When you browse on this site, cookies collect data to enhance your experience and personalize the content and advertising you see.
Visit our Privacy Policy to learn more. By continuing to use the site, you agree to this use of cookies and data.
  • In Hungary
  • List of Countries
  • For 7 days
  • Water Temperature
  • Weather Map
  • News
  • Weather Widgets
  • user-avatar
    Login

    Hourly Weather Gurovka

    Today, 23 February, Sunday

    Time Temperature Precipitation Wind Pressure Humidity
    00:00 -3°C° 0 mm 7 mps 747 mmHg 84%
    01:00 -4°C° 0 mm 8 mps 746 mmHg 83%
    02:00 -4°C° 0 mm 8 mps 745 mmHg 83%
    03:00 -4°C° 0.1 mm 8 mps 744 mmHg 85%
    04:00 -4°C° 0.1 mm 9 mps 742 mmHg 88%
    05:00 -4°C° 0.1 mm 9 mps 741 mmHg 90%
    06:00 -4°C° 0.7 mm 9 mps 740 mmHg 92%
    07:00 -4°C° 0.7 mm 9 mps 740 mmHg 94%
    08:00 -4°C° 0.7 mm 9 mps 739 mmHg 96%
    09:00 -3°C° 0.4 mm 9 mps 738 mmHg 96%
    10:00 -2°C° 0.4 mm 8 mps 737 mmHg 96%
    11:00 -1°C° 0.4 mm 8 mps 736 mmHg 96%
    12:00 -1°C° 0.4 mm 7 mps 736 mmHg 96%
    13:00 -1°C° 0.4 mm 7 mps 736 mmHg 96%
    14:00 +1°C° 0.4 mm 6 mps 736 mmHg 95%
    15:00 -1°C° 0.3 mm 6 mps 736 mmHg 92%
    16:00 0°C° 0.3 mm 5 mps 735 mmHg 89%
    17:00 -1°C° 0.3 mm 4 mps 735 mmHg 86%
    18:00 -1°C° 0 mm 4 mps 735 mmHg 87%
    19:00 -1°C° 0 mm 4 mps 735 mmHg 87%
    20:00 -2°C° 0 mm 4 mps 735 mmHg 87%
    21:00 -2°C° 0 mm 4 mps 735 mmHg 88%
    22:00 -2°C° 0 mm 4 mps 735 mmHg 89%
    23:00 -2°C° 0 mm 4 mps 735 mmHg 91%

    Tomorrow, 24 February, Monday

    Time Temperature Precipitation Wind Pressure Humidity
    00:00 -2°C° 0 mm 4 mps 734 mmHg 91%
    01:00 -2°C° 0 mm 4 mps 734 mmHg 92%
    02:00 -3°C° 0 mm 4 mps 734 mmHg 92%
    03:00 -3°C° 0 mm 4 mps 733 mmHg 93%
    04:00 -2°C° 0 mm 3 mps 733 mmHg 94%
    05:00 -2°C° 0 mm 3 mps 732 mmHg 94%
    06:00 -2°C° 0 mm 3 mps 732 mmHg 94%
    07:00 -2°C° 0 mm 3 mps 731 mmHg 94%
    08:00 -1°C° 0 mm 2 mps 731 mmHg 94%
    09:00 -1°C° 0.1 mm 2 mps 731 mmHg 94%
    10:00 +1°C° 0.1 mm 2 mps 730 mmHg 93%
    11:00 +1°C° 0.1 mm 2 mps 730 mmHg 93%
    12:00 +1°C° 0 mm 2 mps 730 mmHg 91%
    13:00 0°C° 0 mm 3 mps 730 mmHg 89%
    14:00 +1°C° 0 mm 3 mps 730 mmHg 88%
    15:00 0°C° 0 mm 3 mps 730 mmHg 88%
    16:00 0°C° 0 mm 3 mps 731 mmHg 88%
    17:00 0°C° 0 mm 3 mps 731 mmHg 88%
    18:00 -2°C° 0 mm 4 mps 732 mmHg 86%
    19:00 -2°C° 0 mm 5 mps 733 mmHg 84%
    20:00 -2°C° 0 mm 5 mps 733 mmHg 81%
    21:00 -3°C° 0 mm 6 mps 734 mmHg 81%
    22:00 -3°C° 0 mm 6 mps 734 mmHg 80%
    23:00 -3°C° 0 mm 7 mps 735 mmHg 80%

    Day after tomorrow, 25 February, Tuesday

    Time Temperature Precipitation Wind Pressure Humidity
    00:00 -4°C° 0 mm 6 mps 736 mmHg 79%
    01:00 -4°C° 0 mm 6 mps 736 mmHg 78%
    02:00 -4°C° 0 mm 6 mps 737 mmHg 77%
    03:00 -5°C° 0 mm 5 mps 737 mmHg 77%
    04:00 -5°C° 0 mm 5 mps 738 mmHg 77%
    05:00 -5°C° 0 mm 5 mps 738 mmHg 77%
    06:00 -5°C° 0 mm 5 mps 739 mmHg 77%
    07:00 -4°C° 0 mm 4 mps 739 mmHg 77%
    08:00 -4°C° 0 mm 4 mps 740 mmHg 77%
    09:00 -3°C° 0 mm 4 mps 740 mmHg 73%
    10:00 -2°C° 0 mm 4 mps 740 mmHg 69%
    11:00 -1°C° 0 mm 4 mps 740 mmHg 65%
    12:00 -1°C° 0 mm 4 mps 740 mmHg 64%
    13:00 0°C° 0 mm 5 mps 740 mmHg 62%
    14:00 0°C° 0 mm 5 mps 740 mmHg 61%
    15:00 -1°C° 0 mm 4 mps 739 mmHg 66%
    16:00 -1°C° 0 mm 4 mps 739 mmHg 70%
    17:00 -2°C° 0 mm 4 mps 739 mmHg 75%
    18:00 -2°C° 0 mm 4 mps 739 mmHg 80%
    19:00 -2°C° 0 mm 5 mps 739 mmHg 84%
    20:00 -2°C° 0 mm 5 mps 738 mmHg 88%
    21:00 -2°C° 0.1 mm 5 mps 738 mmHg 91%
    22:00 -2°C° 0.1 mm 5 mps 737 mmHg 94%
    23:00 -2°C° 0.1 mm 5 mps 737 mmHg 96%

    26 February, Wednesday

    Time Temperature Precipitation Wind Pressure Humidity
    00:00 -1°C° 0.2 mm 5 mps 736 mmHg 97%
    01:00 -1°C° 0.2 mm 5 mps 736 mmHg 97%
    02:00 -2°C° 0.2 mm 6 mps 736 mmHg 97%
    03:00 -1°C° 0.1 mm 6 mps 735 mmHg 96%
    04:00 -1°C° 0.1 mm 6 mps 735 mmHg 95%
    05:00 -1°C° 0.1 mm 6 mps 735 mmHg 95%
    06:00 -1°C° 0 mm 6 mps 734 mmHg 94%
    07:00 0°C° 0 mm 5 mps 734 mmHg 94%
    08:00 0°C° 0 mm 5 mps 734 mmHg 94%
    09:00 0°C° 0 mm 5 mps 734 mmHg 93%
    10:00 -1°C° 0 mm 6 mps 734 mmHg 93%
    11:00 -1°C° 0 mm 6 mps 734 mmHg 92%
    12:00 -1°C° 0.2 mm 6 mps 734 mmHg 92%
    13:00 0°C° 0.2 mm 5 mps 734 mmHg 93%
    14:00 0°C° 0.2 mm 5 mps 734 mmHg 93%
    15:00 0°C° 0.1 mm 4 mps 734 mmHg 94%
    16:00 0°C° 0.1 mm 4 mps 735 mmHg 95%
    17:00 +1°C° 0.1 mm 3 mps 735 mmHg 96%
    18:00 +1°C° 0.2 mm 3 mps 735 mmHg 96%
    19:00 +2°C° 0.2 mm 2 mps 735 mmHg 97%
    20:00 +2°C° 0.2 mm 2 mps 735 mmHg 97%
    21:00 +2°C° 0.1 mm 2 mps 735 mmHg 97%
    22:00 +2°C° 0.1 mm 2 mps 735 mmHg 97%
    23:00 +2°C° 0.1 mm 2 mps 735 mmHg 96%

    27 February, Thursday

    Time Temperature Precipitation Wind Pressure Humidity
    00:00 +1°C° 0 mm 3 mps 735 mmHg 95%
    01:00 +1°C° 0 mm 3 mps 734 mmHg 93%
    02:00 0°C° 0 mm 4 mps 734 mmHg 91%
    03:00 0°C° 0.1 mm 4 mps 734 mmHg 92%
    04:00 0°C° 0.1 mm 4 mps 733 mmHg 93%
    05:00 0°C° 0.1 mm 4 mps 733 mmHg 94%
    06:00 0°C° 0 mm 4 mps 733 mmHg 95%
    07:00 0°C° 0 mm 4 mps 733 mmHg 95%
    08:00 0°C° 0 mm 4 mps 733 mmHg 95%
    09:00 0°C° 0.1 mm 4 mps 733 mmHg 95%
    10:00 +1°C° 0.1 mm 5 mps 733 mmHg 94%
    11:00 +1°C° 0.1 mm 5 mps 733 mmHg 94%
    12:00 +1°C° 0.1 mm 4 mps 733 mmHg 94%
    13:00 +3°C° 0.1 mm 4 mps 733 mmHg 94%
    14:00 +3°C° 0.1 mm 4 mps 733 mmHg 95%
    15:00 +3°C° 0 mm 4 mps 733 mmHg 95%
    16:00 +3°C° 0 mm 4 mps 733 mmHg 95%
    17:00 +1°C° 0 mm 4 mps 734 mmHg 96%
    18:00 +1°C° 0 mm 4 mps 734 mmHg 96%
    19:00 +1°C° 0 mm 4 mps 735 mmHg 96%
    20:00 +2°C° 0 mm 3 mps 735 mmHg 97%
    21:00 +2°C° 0 mm 3 mps 736 mmHg 97%
    22:00 +2°C° 0 mm 3 mps 736 mmHg 97%
    23:00 +2°C° 0 mm 3 mps 737 mmHg 97%

    28 February, Friday

    Time Temperature Precipitation Wind Pressure Humidity
    00:00 +2°C° 0 mm 3 mps 737 mmHg 96%
    01:00 +2°C° 0 mm 2 mps 737 mmHg 95%
    02:00 +2°C° 0 mm 2 mps 738 mmHg 94%
    03:00 +2°C° 0 mm 2 mps 738 mmHg 93%
    04:00 +2°C° 0 mm 2 mps 738 mmHg 92%
    05:00 +3°C° 0 mm 1 mps 738 mmHg 91%
    06:00 +3°C° 0 mm 1 mps 739 mmHg 91%
    07:00 +3°C° 0 mm 1 mps 739 mmHg 91%
    08:00 +2°C° 0 mm 1 mps 740 mmHg 91%
    09:00 +2°C° 0 mm 2 mps 740 mmHg 88%
    10:00 +3°C° 0 mm 2 mps 740 mmHg 84%
    11:00 +3°C° 0 mm 2 mps 741 mmHg 81%
    12:00 +4°C° 0 mm 2 mps 741 mmHg 78%
    13:00 +5°C° 0 mm 1 mps 741 mmHg 75%
    14:00 +6°C° 0 mm 1 mps 741 mmHg 72%
    15:00 +5°C° 0 mm 1 mps 741 mmHg 75%
    16:00 +5°C° 0 mm 1 mps 742 mmHg 77%
    17:00 +4°C° 0 mm 1 mps 742 mmHg 79%
    18:00 +4°C° 0 mm 1 mps 742 mmHg 80%
    19:00 +3°C° 0 mm 1 mps 742 mmHg 82%
    20:00 +2°C° 0 mm 0 mps 743 mmHg 83%
    21:00 +2°C° 0 mm 1 mps 743 mmHg 84%
    22:00 +2°C° 0 mm 1 mps 743 mmHg 85%
    23:00 +2°C° 0 mm 1 mps 743 mmHg 86%
    Show more